[[{"header":{"parameterUnit":"m.s-1","parameterCategory":1,"la1":30.2991,"la2":30.254,"lo1":-89.0895,"lo2":-89.0444,"dy":0.0017,"dx":0.0017,"nx":28,"ny":28,"refTime":"2025-05-18T21:00:00:Z","depth":0,"parameterNumber":2,"parameterNumberName":"U-component_of_WINDS"},"data":[0,0,0,0,0,0,0,0,0,0,0,0,0,0,0,0,0,0,0,0,0,0,0,0,0,0,0,0,0,0,0,0,0,0,0,0,0,0,0,0,0,0,0,0,0,0,0,0,0,0,0,0,0,0,0,0,0,0,-0.8552,-0.8552,0,-0.8506,-0.8505,-0.8505,-0.8477,-0.8477,-0.8477,-0.8477,-0.8427,-0.8426,-0.8425,0,0,0,0,0,0,0,0,0,0,0,0,0,-0.8617,-0.8616,-0.8552,-0.8552,-0.8551,-0.8506,-0.8505,-0.8505,-0.8477,-0.8477,-0.8477,-0.8476,-0.8428,-0.8426,-0.8425,0,0,0,0,0,0,0,0,0,0,0,0,0,-0.8581,-0.8615,-0.8552,-0.8532,-0.853,-0.8506,-0.8505,-0.8504,-0.8477,-0.8477,-0.8477,-0.8476,-0.8428,-0.8427,-0.8425,-0.8417,0,0,-0.8419,-0.8419,0,0,0,0,0,0,0,0,-0.8583,-0.8579,-0.8535,-0.8533,-0.8531,-0.8497,-0.851,-0.8475,-0.8477,-0.8497,-0.8477,-0.8476,-0.8451,-0.8447,-0.8439,-0.8415,-0.8413,-0.8419,-0.8418,-0.8417,-0.8417,0,0,0,0,0,0,0,-0.8586,-0.8581,-0.8534,-0.8535,-0.8532,-0.8525,-0.852,-0.8503,-0.8475,-0.8495,-0.8493,-0.8488,-0.8449,-0.844,-0.8437,-0.8412,-0.8419,-0.8418,-0.8417,-0.8416,-0.8381,-0.8382,0,0,0,0,0,0,-0.8592,-0.8583,-0.8535,-0.8532,-0.8557,-0.8524,-0.8518,-0.8508,-0.8475,-0.847,-0.8488,-0.8487,-0.8444,-0.8439,-0.8435,-0.8425,-0.8417,-0.8416,-0.8415,-0.8381,-0.8381,-0.8382,0,0,0,0,0,0,-0.8593,-0.8588,-0.8537,-0.8557,-0.855,-0.8523,-0.8512,-0.8507,-0.8498,-0.847,-0.8465,-0.8484,-0.8443,-0.8438,-0.8422,-0.8423,-0.8415,-0.8413,-0.8381,-0.8381,-0.8381,-0.8404,0,0,0,0,0,0,-0.8595,-0.8588,-0.8585,-0.8557,-0.8549,-0.8525,-0.8512,-0.8506,-0.8495,-0.8493,-0.8465,-0.846,-0.8443,-0.8425,-0.8421,-0.842,-0.8412,-0.8381,-0.8381,-0.8381,-0.8403,-0.8405,-0.8407,0,0,0,0,0,-0.8597,-0.8593,-0.8585,-0.858,-0.8545,-0.8525,-0.8521,-0.8501,-0.8496,-0.8492,-0.8475,-0.8461,-0.8424,-0.8424,-0.8419,-0.8418,-0.8381,-0.8381,-0.8381,-0.8403,-0.8405,-0.8407,0,0,0,0,0,0,-0.8621,-0.8589,-0.858,-0.8567,-0.8549,-0.8521,-0.8516,-0.8504,-0.8487,-0.8486,-0.8461,-0.8455,-0.8442,-0.8428,-0.8429,-0.8409,-0.8401,-0.84,-0.8419,-0.8421,-0.8423,-0.8426,-0.841,0,0,0,0,0,-0.8625,-0.8612,-0.8585,-0.8575,-0.8567,-0.8543,-0.8534,-0.852,-0.8501,-0.8493,-0.8474,-0.8455,-0.8439,-0.8429,-0.8413,-0.8402,-0.8395,-0.8398,-0.84,-0.8402,-0.8401,-0.8395,-0.8396,-0.8383,-0.8383,-0.8383,0,0,-0.8632,-0.8613,-0.8606,-0.858,-0.8564,-0.8552,-0.8537,-0.8524,-0.8514,-0.8491,-0.8475,-0.8461,-0.8438,-0.8425,-0.8418,-0.8413,-0.8404,-0.8402,-0.8404,-0.8402,-0.8395,-0.8397,-0.8398,-0.8383,-0.8383,-0.8383,0,0,-0.864,-0.8624,-0.8615,-0.86,-0.8577,-0.8562,-0.856,-0.8533,-0.8523,-0.8507,-0.849,-0.8478,-0.8451,-0.8436,-0.8425,-0.8427,-0.8415,-0.8423,-0.8432,-0.8426,-0.8427,-0.8428,-0.8429,-0.843,-0.8422,-0.8423,-0.8423,0,-0.8652,-0.8632,-0.8611,-0.8599,-0.8588,-0.8568,-0.8559,-0.8545,-0.8518,-0.8511,-0.8506,-0.8472,-0.8456,-0.8439,-0.844,-0.8431,-0.8428,-0.8426,-0.8428,-0.8429,-0.8429,-0.843,-0.8431,-0.8424,-0.8424,-0.8423,-0.8423,0,-0.8648,-0.8634,-0.863,-0.8605,-0.8593,-0.8583,-0.8561,-0.8552,-0.8539,-0.8524,-0.8509,-0.8488,-0.8468,-0.8463,-0.845,-0.8444,-0.8442,-0.8433,-0.8424,-0.8432,-0.8433,-0.8433,-0.8425,-0.8425,-0.8425,-0.8424,0,0,-0.8668,-0.8633,-0.8632,-0.862,-0.8595,-0.8584,-0.8572,-0.8553,-0.8546,-0.8528,-0.8518,-0.8496,-0.8488,-0.8475,-0.8461,-0.8456,-0.846,-0.8447,-0.8447,-0.8451,-0.8452,-0.8459,-0.846,-0.8451,-0.8451,-0.8451,-0.8454,0,-0.8671,-0.865,-0.8632,-0.8618,-0.8605,-0.8586,-0.8576,-0.8559,-0.8545,-0.8532,-0.8516,-0.8502,-0.8492,-0.8484,-0.8478,-0.8461,-0.846,-0.846,-0.8442,-0.8441,-0.8448,-0.846,-0.8467,-0.8471,-0.8454,-0.8454,-0.8454,0,-0.8672,-0.8656,-0.8641,-0.8617,-0.8611,-0.8602,-0.8584,-0.8572,-0.8552,-0.8542,-0.8529,-0.8514,-0.8502,-0.8494,-0.8476,-0.8477,-0.8469,-0.8459,-0.8459,-0.8456,-0.8448,-0.8458,-0.8472,-0.8472,-0.8454,-0.8454,-0.8454,0,-0.8689,-0.8663,-0.8651,-0.8642,-0.8614,-0.8608,-0.8596,-0.8577,-0.8567,-0.855,-0.8543,-0.8526,-0.8516,-0.8502,-0.8483,-0.848,-0.8468,-0.8458,-0.8459,-0.8459,-0.8457,-0.8457,-0.847,-0.8452,-0.8452,-0.8452,-0.8451,0,-0.8694,-0.8686,-0.8658,-0.865,-0.864,-0.862,-0.861,-0.8597,-0.858,-0.8569,-0.8551,-0.8542,-0.8517,-0.8505,-0.849,-0.8477,-0.8473,-0.8464,-0.8461,-0.8466,-0.8467,-0.846,-0.8459,-0.8452,-0.8452,-0.8452,-0.8452,0,-0.8711,-0.8692,-0.8677,-0.8652,-0.8646,-0.864,-0.8618,-0.861,-0.8595,-0.8582,-0.8578,-0.8554,-0.8539,-0.8519,-0.8496,-0.8486,-0.8476,-0.847,-0.8483,-0.848,-0.8482,-0.8482,-0.849,-0.849,-0.8472,-0.8472,-0.8473,0,-0.8716,-0.8709,-0.8683,-0.8675,-0.8664,-0.8651,-0.8641,-0.862,-0.8611,-0.8589,-0.8583,-0.8566,-0.8552,-0.8528,-0.8509,-0.8492,-0.8485,-0.8489,-0.8482,-0.8489,-0.8485,-0.8486,-0.8486,-0.8491,-0.8491,-0.8491,-0.8492,0,-0.8726,-0.8718,-0.8704,-0.8687,-0.8676,-0.8661,-0.8646,-0.8641,-0.8617,-0.8607,-0.8591,-0.858,-0.8558,-0.8542,-0.8522,-0.851,-0.8497,-0.8494,-0.8493,-0.8499,-0.8506,-0.8503,-0.8487,-0.8494,-0.8493,-0.8493,-0.8493,-0.8493,-0.8737,-0.8731,-0.8712,-0.8697,-0.8684,-0.867,-0.8662,-0.8646,-0.8633,-0.8614,-0.8603,-0.8588,-0.8569,-0.8542,-0.853,-0.8517,-0.8512,-0.8511,-0.8511,-0.8511,-0.8513,-0.8509,-0.8514,-0.8514,-0.8514,-0.8514,-0.8513,0,-0.8747,-0.8735,-0.8722,-0.8701,-0.869,-0.868,-0.8662,-0.8654,-0.8641,-0.8624,-0.8611,-0.8593,-0.8577,-0.8557,-0.854,-0.8534,-0.8528,-0.8531,-0.8531,-0.8528,-0.8518,-0.8521,-0.8536,-0.8536,-0.8536,-0.8536,-0.8536,-0.8536,-0.8751,-0.874,-0.8729,-0.871,-0.8697,-0.8683,-0.8674,-0.8662,-0.8649,-0.863,-0.8617,-0.8604,-0.8587,-0.8568,-0.8553,-0.8548,-0.8542,-0.8547,-0.854,-0.8531,-0.8529,-0.8527,-0.8529,-0.8546,-0.8546,-0.855,-0.855,-0.8551]},{"header":{"parameterUnit":"m.s-1","parameterCategory":1,"la1":30.2991,"la2":30.254,"lo1":-89.0895,"lo2":-89.0444,"dy":0.0017,"dx":0.0017,"nx":28,"ny":28,"refTime":"2025-05-18T21:00:00:Z","depth":0,"parameterNumber":3,"parameterNumberName":"V-component_of_WINDS"},"data":[0,0,0,0,0,0,0,0,0,0,0,0,0,0,0,0,0,0,0,0,0,0,0,0,0,0,0,0,0,0,0,0,0,0,0,0,0,0,0,0,0,0,0,0,0,0,0,0,0,0,0,0,0,0,0,0,0,0,4.8115,4.8115,0,4.8117,4.8117,4.8118,4.8034,4.8031,4.8029,4.8027,4.8028,4.803,4.8032,0,0,0,0,0,0,0,0,0,0,0,0,0,4.8035,4.8037,4.8115,4.8115,4.8115,4.8117,4.8117,4.8118,4.8034,4.8031,4.8029,4.8026,4.8027,4.803,4.8032,0,0,0,0,0,0,0,0,0,0,0,0,0,4.8057,4.8038,4.8115,4.8073,4.807,4.8117,4.8117,4.8118,4.8035,4.8031,4.8028,4.8025,4.8027,4.803,4.8033,4.8119,0,0,4.8042,4.8044,0,0,0,0,0,0,0,0,4.8056,4.806,4.8079,4.8076,4.8072,4.8072,4.809,4.8118,4.8035,4.8048,4.8027,4.8023,4.8045,4.8047,4.8054,4.8119,4.812,4.8043,4.8045,4.8046,4.8047,0,0,0,0,0,0,0,4.8054,4.8059,4.8116,4.808,4.8076,4.8054,4.8054,4.8095,4.8065,4.8047,4.8041,4.8042,4.8043,4.8052,4.8054,4.812,4.8043,4.8045,4.8047,4.8049,4.8255,4.8259,0,0,0,0,0,0,4.8059,4.8059,4.8116,4.8116,4.8056,4.8058,4.8058,4.8075,4.8065,4.806,4.8045,4.8038,4.8048,4.805,4.8054,4.8154,4.8046,4.8049,4.8051,4.8252,4.8256,4.826,0,0,0,0,0,0,4.8057,4.8065,4.8115,4.8086,4.809,4.8063,4.8084,4.8077,4.8086,4.8063,4.8058,4.806,4.8045,4.8049,4.8104,4.8153,4.805,4.8053,4.8248,4.8253,4.8258,4.8355,0,0,0,0,0,0,4.8056,4.8065,4.8098,4.8087,4.8092,4.8166,4.8087,4.808,4.8092,4.8083,4.8076,4.8071,4.8043,4.81,4.8107,4.8155,4.8056,4.8243,4.825,4.8256,4.8348,4.8364,4.8377,0,0,0,0,0,4.8053,4.8125,4.81,4.8107,4.8133,4.8169,4.8172,4.8139,4.8096,4.8129,4.8114,4.8071,4.8147,4.8106,4.8113,4.8163,4.824,4.8248,4.8256,4.8341,4.836,4.8377,0,0,0,0,0,0,4.8141,4.8122,4.8095,4.8165,4.817,4.8155,4.8195,4.816,4.8176,4.8167,4.8125,4.8124,4.8185,4.818,4.8135,4.8247,4.8186,4.8196,4.8248,4.8266,4.828,4.828,4.8058,0,0,0,0,0,4.8169,4.82,4.8182,4.8246,4.825,4.8222,4.8237,4.8211,4.8213,4.8215,4.8204,4.8208,4.8232,4.8249,4.827,4.8347,4.8344,4.8385,4.84,4.8412,4.8421,4.8461,4.8479,4.8287,4.8287,4.8286,0,0,4.8225,4.8219,4.8242,4.8263,4.8264,4.8297,4.8224,4.8262,4.8286,4.822,4.8271,4.8264,4.8265,4.8331,4.836,4.8329,4.8474,4.8422,4.8432,4.8434,4.8471,4.8489,4.8506,4.8292,4.8291,4.829,0,0,4.8346,4.8345,4.8398,4.84,4.8402,4.8384,4.8397,4.8388,4.8381,4.8431,4.8383,4.841,4.8453,4.8456,4.8463,4.8586,4.8547,4.8595,4.8671,4.871,4.8725,4.8739,4.8782,4.8798,4.8604,4.8604,4.8604,0,4.8417,4.8465,4.843,4.8471,4.8482,4.8425,4.8478,4.8481,4.849,4.8498,4.8464,4.8516,4.8513,4.8579,4.861,4.8617,4.863,4.8594,4.8726,4.8739,4.8751,4.8792,4.8808,4.861,4.8609,4.8608,4.8608,0,4.8551,4.8586,4.8628,4.8639,4.8654,4.8701,4.8672,4.8692,4.8666,4.8651,4.8703,4.8698,4.8717,4.8731,4.8705,4.8793,4.8774,4.8734,4.8671,4.8775,4.8813,4.8828,4.8618,4.8616,4.8614,4.8613,0,0,4.8726,4.8717,4.8733,4.8737,4.8736,4.8761,4.8806,4.8825,4.8843,4.8851,4.8887,4.8925,4.8888,4.8896,4.887,4.8905,4.9002,4.886,4.8859,4.8886,4.9099,4.9129,4.9148,4.8977,4.898,4.8982,4.9099,0,4.8842,4.8918,4.8888,4.8966,4.8997,4.8944,4.8983,4.8986,4.8974,4.8998,4.8984,4.9011,4.8961,4.8965,4.8998,4.8984,4.9045,4.8975,4.9009,4.9011,4.9009,4.9167,4.9199,4.9309,4.9113,4.9116,4.9118,0,4.8988,4.9003,4.9085,4.9078,4.909,4.9125,4.9141,4.9165,4.9167,4.9156,4.9166,4.9132,4.9175,4.9114,4.9172,4.9125,4.9138,4.9133,4.9137,4.9138,4.907,4.9172,4.9343,4.936,4.9141,4.9139,4.9137,0,4.9106,4.9147,4.9201,4.9206,4.92,4.9226,4.9225,4.9224,4.9238,4.9251,4.9259,4.9278,4.9288,4.9303,4.9275,4.9233,4.9336,4.9273,4.9327,4.9328,4.935,4.9349,4.9526,4.9361,4.936,4.936,4.936,0,4.9238,4.929,4.9254,4.9287,4.9343,4.9308,4.9365,4.9358,4.9358,4.9388,4.9344,4.9373,4.9335,4.936,4.9339,4.939,4.9395,4.9386,4.938,4.939,4.9391,4.9396,4.9388,4.9364,4.9363,4.9363,4.9362,0,4.9379,4.9357,4.9412,4.9403,4.9401,4.9443,4.9434,4.9464,4.945,4.9489,4.9496,4.9473,4.9501,4.9475,4.9501,4.9486,4.9555,4.9537,4.9554,4.9549,4.9604,4.9599,4.979,4.9812,4.9634,4.9636,4.9637,0,4.9464,4.9503,4.9498,4.9516,4.9517,4.9546,4.956,4.9528,4.9544,4.955,4.958,4.9604,4.9622,4.9669,4.9654,4.9674,4.9656,4.9722,4.9659,4.9668,4.9656,4.9654,4.9657,4.9734,4.9736,4.9738,4.9739,0,4.9618,4.9606,4.9628,4.9647,4.9666,4.9679,4.9688,4.9705,4.9672,4.9693,4.9721,4.9735,4.9763,4.9787,4.9803,4.98,4.9765,4.976,4.9773,4.9783,4.9791,4.9787,4.9588,4.9755,4.9753,4.9752,4.9751,4.9751,4.9733,4.9765,4.9767,4.9793,4.9798,4.9808,4.9836,4.9825,4.9848,4.9869,4.9848,4.9883,4.9884,4.9902,4.9904,4.993,4.9903,4.9923,4.9927,4.9932,4.994,4.9788,4.9933,4.9933,4.9932,4.9932,4.9932,0,4.9884,4.9883,4.9908,4.9923,4.9944,4.991,4.9919,4.9939,4.997,4.9975,4.9994,5.0027,5.0051,5.0038,5.0059,5.0082,5.0066,5.0089,5.0086,5.0086,4.9964,4.995,5.0101,5.0101,5.0101,5.0101,5.0101,5.0101,4.9965,5.0017,5.0005,5.0059,5.0057,5.0091,5.0099,5.0108,5.0112,5.0151,5.0171,5.0164,5.0162,5.0182,5.0202,5.0198,5.0207,5.0236,5.0225,5.0111,5.0095,5.0079,5.0065,5.0238,5.0238,5.0345,5.0346,5.0347]}]]